Flag for Iran Weather past 2 weeks in Rafsanjan, Iran

Now
81 °F

Passing clouds.


Feels Like: 79 °F
Forecast: 64 / 94 °F
Wind: 5 mph from Northwest

Location: Kerman Airport

Current Time: Oct 1, 2014 at 7:46:38 PM

Latest Report: Oct 1, 2014 at 6:30 PM


Visibility: N/A

Pressure: 30.15 "Hg

Humidity: 14%

Dew point: 27 °F

Location of RafsanjanLocation

Historic Weather in Rafsanjan — Graph

°F

Rafsanjan temperature yesterday

Maximum temperature yesterday: 91 °F (at 3:30 PM)
Minimum temperature yesterday: 59 °F (at 5:30 AM)
Average temperature yesterday: 77 °F

Past Weeks' High & Low Weather Summary

 TemperatureHumidityPressure
High95 °F (Sep 22, 3:00 PM)36% (Sep 27, 5:30 AM)30.27 "Hg (Sep 27, 5:30 AM)
Low52 °F (Sep 24, 4:30 AM)4% (Sep 24, 2:30 PM)29.92 "Hg (Oct 1, 10:00 AM)
Average79 °F15%30.11 "Hg
* Reported Sep 16 7:30 PM — Oct 1 6:30 PM, Rafsanjan, Weather by CustomWeather, © 2014

Note: Actual official high and low records may vary slightly from our data, if they occured in-between our weather recording intervals... More about our weather records

Advertising

Rafsanjan weather history for previous 24 hours

 ConditionsComfort  
Time TempWeatherWind HumidityBarometerVisibility
6:30 PM
Oct 1
81 °FPassing clouds.5 mph14%30.15 "HgN/A
5:30 PM86 °FScattered clouds.7 mph10%30.12 "HgN/A
4:30 PM88 °FScattered clouds.12 mph9%30.12 "HgN/A
3:30 PM91 °FScattered clouds.9 mph8%30.12 "HgN/A
2:30 PM90 °FScattered clouds.12 mph9%30.15 "HgN/A
1:30 PM88 °FScattered clouds.7 mph9%30.18 "HgN/A
12:30 PM88 °FScattered clouds.9 mph9%30.21 "HgN/A
11:30 AM88 °FScattered clouds.7 mph11%30.21 "HgN/A
11:00 AM88 °FScattered clouds.9 mph10%30.24 "HgN/A
10:30 AM88 °FSunny.7 mph11%30.24 "Hg10 mi
10:00 AM86 °FSunny.5 mph12%29.92 "Hg10 mi
9:30 AM84 °FSunny.5 mph14%30.27 "Hg10 mi
9:00 AM81 °FSunny.7 mph16%30.27 "Hg10 mi
8:30 AM79 °FSunny.5 mph17%30.27 "Hg10 mi
7:30 AM68 °FPassing clouds.5 mph23%30.27 "HgN/A
6:30 AM63 °FPassing clouds.5 mph25%30.24 "HgN/A
5:30 AM55 °FClear.5 mph33%30.24 "Hg10 mi
4:30 AM59 °FClear.9 mph29%30.21 "Hg10 mi
3:30 AM63 °FClear.7 mph25%30.21 "Hg10 mi
2:30 AM61 °FClear.5 mph27%30.21 "Hg10 mi
1:30 AM64 °FClear.5 mph22%30.21 "Hg10 mi
12:30 AM68 °FClear.5 mph21%30.21 "Hg10 mi
11:30 PM
Sep 30
70 °FClear.7 mph20%30.21 "Hg10 mi
10:30 PM68 °FClear.5 mph21%30.24 "Hg10 mi
9:30 PM72 °FPassing clouds.5 mph19%30.24 "HgN/A
8:30 PM75 °FPassing clouds.5 mph16%30.21 "HgN/A
7:30 PM81 °FPassing clouds.9 mph13%30.21 "HgN/A
Weather by CustomWeather, © 2014

See weather overviewHow to use our weather pages